| time (UTC) | temp F | wind direction | speed MPH | gust MPH | rain 1hr in | rain 24hr in | rain mn in | humidity % | barometer mb |
| 20260904101556 | 64 | 79 | 0.0 | 0.0 | 0.00 | 0.51 | 0.00 | 94 | 1011.5 |
| 20260904100104 | 64 | 78 | 0.0 | 0.0 | 0.00 | 0.51 | 0.00 | 94 | 1011.7 |
| 20260904094601 | 64 | 78 | 0.0 | 1.0 | 0.00 | 0.51 | 0.00 | 94 | 1011.8 |
| 20260904093055 | 64 | 79 | 0.0 | 0.0 | 0.00 | 0.51 | 0.00 | 94 | 1011.8 |
| 20260904091555 | 64 | 78 | 0.0 | 0.0 | 0.00 | 0.51 | 0.00 | 94 | 1012.0 |
| 20260904090045 | 63 | 79 | 0.0 | 0.0 | 0.00 | 0.51 | 0.00 | 94 | 1012.2 |
| 20260904084536 | 63 | 78 | 0.0 | 0.0 | 0.00 | 0.51 | 0.00 | 94 | 1012.0 |
| 20260904083020 | 64 | 78 | 0.0 | 0.0 | 0.00 | 0.51 | 0.00 | 94 | 1012.0 |
| 20260904081527 | 64 | 77 | 0.0 | 0.0 | 0.00 | 0.51 | 0.00 | 94 | 1011.9 |
| 20260904080002 | 64 | 78 | 0.0 | 1.0 | 0.00 | 0.51 | 0.00 | 94 | 1011.7 |
| 20260904074501 | 65 | 78 | 0.0 | 2.0 | 0.00 | 0.51 | 0.00 | 94 | 1011.8 |
| 20260904073101 | 64 | 21 | 0.0 | 0.0 | 0.00 | 0.51 | 0.00 | 94 | 1011.7 |
| 20260904071618 | 65 | 21 | 0.0 | 0.0 | 0.00 | 0.51 | 0.00 | 94 | 1012.3 |
| 20260904070114 | 66 | 21 | 0.0 | 0.0 | 0.00 | 0.51 | 0.00 | 94 | 1012.6 |
| 20260904064553 | 66 | 21 | 0.0 | 0.0 | 0.00 | 0.51 | 0.00 | 94 | 1012.7 |
| 20260904063101 | 66 | 21 | 0.0 | 0.0 | 0.00 | 0.51 | 0.00 | 94 | 1012.8 |
| 20260904061553 | 66 | 21 | 0.0 | 0.0 | 0.00 | 0.51 | 0.00 | 94 | 1012.7 |
| 20260904060036 | 67 | 21 | 0.0 | 2.0 | 0.00 | 0.51 | 0.00 | 94 | 1012.5 |
| 20260904054545 | 67 | 21 | 0.0 | 1.0 | 0.00 | 0.51 | 0.00 | 94 | 1012.7 |
| 20260904053035 | 68 | 21 | 0.0 | 2.0 | 0.00 | 0.51 | 0.00 | 94 | 1012.7 |
| 20260904051524 | 68 | 21 | 0.0 | 2.0 | 0.00 | 0.51 | 0.00 | 94 | 1013.0 |
| 20260904050003 | 68 | 21 | 0.0 | 5.0 | 0.00 | 0.51 | 0.00 | 94 | 1013.0 |
| 20260904044502 | 68 | 25 | 0.0 | 4.0 | 0.00 | 0.51 | 0.00 | 94 | 1012.8 |
| 20260904043002 | 68 | 25 | 0.0 | 1.0 | 0.00 | 0.51 | 0.00 | 94 | 1012.8 |
| 20260904041559 | 68 | 187 | 0.0 | 3.0 | 0.00 | 0.51 | 0.00 | 94 | 1012.8 |
| 20260904040107 | 67 | 359 | 0.0 | 1.0 | 0.00 | 0.51 | 0.00 | 94 | 1012.5 |
| 20260904034553 | 66 | 359 | 0.0 | 0.0 | 0.00 | 0.52 | 0.51 | 94 | 1012.3 |
| 20260904033053 | 66 | 186 | 0.0 | 0.0 | 0.00 | 0.52 | 0.51 | 94 | 1012.2 |
| 20260904031557 | 66 | 185 | 0.0 | 0.0 | 0.00 | 0.52 | 0.51 | 94 | 1012.3 |
| 20260904030034 | 67 | 189 | 0.0 | 0.0 | 0.00 | 0.52 | 0.51 | 94 | 1012.1 |
| 20260904024535 | 67 | 187 | 0.0 | 0.0 | 0.00 | 0.60 | 0.51 | 94 | 1012.1 |
| 20260904023016 | 67 | 189 | 0.0 | 0.0 | 0.00 | 0.60 | 0.51 | 94 | 1012.1 |
| 20260904021523 | 68 | 189 | 0.0 | 0.0 | 0.00 | 0.60 | 0.51 | 94 | 1012.1 |
| 20260904020004 | 68 | 189 | 0.0 | 0.0 | 0.00 | 0.60 | 0.51 | 94 | 1011.9 |
| 20260904014504 | 68 | 189 | 0.0 | 0.0 | 0.00 | 0.66 | 0.51 | 94 | 1012.0 |
| 20260904013009 | 68 | 187 | 0.0 | 1.0 | 0.00 | 0.66 | 0.51 | 94 | 1011.9 |
| 20260904011504 | 68 | 185 | 0.0 | 1.0 | 0.00 | 0.66 | 0.51 | 94 | 1011.9 |
| 20260904010003 | 68 | 187 | 0.0 | 7.0 | 0.00 | 0.66 | 0.51 | 94 | 1011.7 |
| 20260904004503 | 68 | 187 | 0.0 | 5.0 | 0.00 | 0.67 | 0.51 | 94 | 1011.2 |
| 20260904003002 | 68 | 185 | 0.0 | 49.0 | 0.00 | 0.67 | 0.51 | 94 | 1011.0 |
| 20260904001502 | 69 | 186 | 0.0 | 2.0 | 0.00 | 0.67 | 0.51 | 94 | 1010.8 |
| 20260904000052 | 69 | 187 | 0.0 | 0.0 | 0.00 | 0.67 | 0.51 | 94 | 1010.6 |
| 20260903234544 | 69 | 189 | 0.0 | 0.0 | 0.00 | 0.68 | 0.51 | 94 | 1010.8 |
| 20260903233025 | 69 | 187 | 0.0 | 0.0 | 0.00 | 0.68 | 0.51 | 94 | 1010.9 |
| 20260903231526 | 69 | 189 | 0.0 | 3.0 | 0.00 | 0.68 | 0.51 | 94 | 1011.0 |
| 20260903230008 | 69 | 188 | 0.0 | 1.0 | 0.00 | 0.68 | 0.51 | 94 | 1011.2 |
| 20260903224516 | 69 | 187 | 0.0 | 6.0 | 0.00 | 0.68 | 0.51 | 94 | 1010.1 |
| 20260903223054 | 69 | 359 | 0.0 | 3.0 | 0.00 | 0.68 | 0.51 | 94 | 1010.1 |
| 20260903221550 | 69 | 263 | 0.0 | 0.0 | 0.01 | 0.68 | 0.51 | 94 | 1009.8 |
| 20260903220039 | 69 | 359 | 0.0 | 0.0 | 0.04 | 0.68 | 0.51 | 93 | 1010.1 |
| 20260903214548 | 69 | 264 | 0.0 | 1.0 | 0.07 | 0.68 | 0.51 | 93 | 1009.6 |
| 20260903213045 | 69 | 359 | 0.0 | 0.0 | 0.08 | 0.68 | 0.51 | 93 | 1010.5 |
| 20260903211538 | 69 | 359 | 0.0 | 4.0 | 0.11 | 0.67 | 0.50 | 93 | 1011.2 |
| 20260903210044 | 69 | 264 | 1.0 | 6.0 | 0.09 | 0.64 | 0.47 | 93 | 1011.8 |
| 20260903204537 | 69 | 249 | 1.0 | 9.0 | 0.28 | 0.61 | 0.44 | 93 | 1012.1 |
| 20260903203037 | 68 | 224 | 4.0 | 13.0 | 0.42 | 0.60 | 0.43 | 93 | 1012.5 |
| 20260903201543 | 69 | 8 | 0.0 | 8.0 | 0.38 | 0.56 | 0.39 | 93 | 1011.5 |
| 20260903194513 | 72 | 239 | 9.0 | 19.0 | 0.08 | 0.26 | 0.09 | 92 | 1012.8 |
| 20260903193012 | 73 | 261 | 0.0 | 3.0 | 0.01 | 0.18 | 0.01 | 92 | 1010.1 |
| 20260903191555 | 73 | 260 | 0.0 | 0.0 | 0.01 | 0.18 | 0.01 | 92 | 1010.3 |
| 20260903190055 | 74 | 359 | 0.0 | 0.0 | 0.01 | 0.18 | 0.01 | 92 | 1010.1 |
| 20260903184538 | 74 | 260 | 0.0 | 2.0 | 0.01 | 0.18 | 0.01 | 92 | 1010.3 |
| 20260903183037 | 74 | 258 | 0.0 | 1.0 | 0.00 | 0.17 | 0.00 | 92 | 1009.4 |
| 20260903181521 | 74 | 258 | 0.0 | 2.0 | 0.00 | 0.17 | 0.00 | 91 | 1010.8 |
| 20260903180025 | 75 | 359 | 1.0 | 3.0 | 0.00 | 0.17 | 0.00 | 91 | 1011.1 |
| 20260903174507 | 74 | 249 | 0.0 | 2.0 | 0.00 | 0.17 | 0.00 | 92 | 1011.1 |
| 20260903173004 | 74 | 250 | 0.0 | 0.0 | 0.00 | 0.17 | 0.00 | 92 | 1011.5 |
| 20260903171509 | 73 | 250 | 0.0 | 2.0 | 0.00 | 0.17 | 0.00 | 92 | 1011.3 |
| 20260903170003 | 72 | 220 | 1.0 | 5.0 | 0.00 | 0.17 | 0.00 | 92 | 1011.8 |
| 20260903164502 | 72 | 209 | 1.0 | 8.0 | 0.00 | 0.17 | 0.00 | 92 | 1011.7 |
| 20260903163001 | 73 | 278 | 2.0 | 5.0 | 0.00 | 0.17 | 0.00 | 92 | 1011.8 |
| 20260903161500 | 73 | 335 | 2.0 | 5.0 | 0.00 | 0.17 | 0.00 | 92 | 1012.0 |
| 20260903160101 | 73 | 354 | 1.0 | 6.0 | 0.00 | 0.17 | 0.00 | 92 | 1011.9 |
| 20260903154547 | 73 | 333 | 0.0 | 4.0 | 0.00 | 0.17 | 0.00 | 92 | 1012.0 |
| 20260903153046 | 73 | 359 | 0.0 | 3.0 | 0.00 | 0.17 | 0.00 | 93 | 1011.5 |
| 20260903151521 | 73 | 247 | 0.0 | 3.0 | 0.00 | 0.17 | 0.00 | 93 | 1011.1 |
| 20260903150022 | 73 | 359 | 1.0 | 3.0 | 0.00 | 0.17 | 0.00 | 93 | 1010.9 |
| 20260903144504 | 72 | 214 | 0.0 | 1.0 | 0.00 | 0.17 | 0.00 | 93 | 1010.8 |
| 20260903143001 | 72 | 214 | 0.0 | 1.0 | 0.00 | 0.17 | 0.00 | 93 | 1011.0 |
| 20260903141600 | 71 | 206 | 0.0 | 1.0 | 0.00 | 0.17 | 0.00 | 93 | 1011.0 |
| 20260903140042 | 71 | 191 | 0.0 | 2.0 | 0.00 | 0.17 | 0.00 | 94 | 1011.0 |
| 20260903134540 | 71 | 176 | 0.0 | 1.0 | 0.00 | 0.17 | 0.00 | 94 | 1011.1 |
| 20260903133023 | 71 | 169 | 0.0 | 0.0 | 0.00 | 0.17 | 0.00 | 94 | 1011.1 |
| 20260903131523 | 71 | 166 | 0.0 | 0.0 | 0.00 | 0.17 | 0.00 | 94 | 1011.2 |
| 20260903130003 | 70 | 166 | 0.0 | 0.0 | 0.00 | 0.17 | 0.00 | 94 | 1011.3 |
| 20260903124501 | 69 | 167 | 0.0 | 0.0 | 0.00 | 0.17 | 0.00 | 94 | 1011.5 |
| 20260903123043 | 68 | 359 | 0.0 | 0.0 | 0.00 | 0.17 | 0.00 | 94 | 1011.4 |
| 20260903121542 | 67 | 167 | 0.0 | 0.0 | 0.00 | 0.17 | 0.00 | 94 | 1011.3 |
| 20260903120025 | 67 | 359 | 0.0 | 0.0 | 0.00 | 0.17 | 0.00 | 94 | 1011.3 |
| 20260903114521 | 67 | 167 | 0.0 | 0.0 | 0.00 | 0.17 | 0.00 | 94 | 1011.1 |
| 20260903113004 | 66 | 166 | 0.0 | 0.0 | 0.00 | 0.17 | 0.00 | 94 | 1010.9 |
| 20260903111504 | 66 | 166 | 0.0 | 0.0 | 0.00 | 0.17 | 0.00 | 93 | 1010.9 |
| 20260903110052 | 66 | 167 | 0.0 | 0.0 | 0.00 | 0.17 | 0.00 | 93 | 1010.7 |
| 20260903104611 | 66 | 359 | 0.0 | 0.0 | 0.00 | 0.17 | 0.00 | 93 | 1010.7 |
| 20260903103059 | 66 | 359 | 0.0 | 0.0 | 0.00 | 0.17 | 0.00 | 93 | 1010.6 |